TAP1926 LPPT-LPPR

Flight info

Callsign TAP1926
Flight time 0h 40m
Altitude 22000
Route IXIDA DCT ABLEG
Aircraft A319/M-SDE3FGHIRWY/LB1

Departure

Time 2026-05-05 19:05
Airport Lisbon Humberto Delgado Airport (LPPT)

Arrival

Time 2026-05-05 19:45
Airport Francisco de Sá Carneiro Airport (LPPR)
Time Latitude Longitude Altitude Speed Heading
2026-05-05 18:47 38.76758 -9.13967 352 ft 0 kts 78°
2026-05-05 18:56 38.76757 -9.13978 351 ft 4 kts 78°
2026-05-05 18:56 38.76752 -9.14011 352 ft 2 kts 78°
2026-05-05 18:56 38.76745 -9.14038 354 ft 4 kts 54°
2026-05-05 18:57 38.76726 -9.14057 350 ft 4 kts
2026-05-05 18:57 38.76702 -9.14054 345 ft 4 kts 348°
2026-05-05 18:57 38.76694 -9.14052 343 ft 0 kts 348°
2026-05-05 19:00 38.76698 -9.14053 343 ft 3 kts 348°
2026-05-05 19:00 38.76742 -9.14067 343 ft 9 kts 338°
2026-05-05 19:01 38.76726 -9.14116 351 ft 9 kts 201°
2026-05-05 19:01 38.76663 -9.14148 346 ft 10 kts 202°
2026-05-05 19:01 38.76598 -9.14199 340 ft 12 kts 239°
2026-05-05 19:01 38.76604 -9.14275 336 ft 0 kts 295°
2026-05-05 19:02 38.76604 -9.14276 336 ft 0 kts 295°
2026-05-05 19:02 38.76616 -9.14310 334 ft 12 kts 295°
2026-05-05 19:02 38.76690 -9.14365 337 ft 14 kts 18°
2026-05-05 19:03 38.76722 -9.14348 337 ft 0 kts 22°
2026-05-05 19:04 38.76744 -9.14337 338 ft 19 kts 22°
2026-05-05 19:04 38.77131 -9.14130 357 ft 97 kts 23°
2026-05-05 19:04 38.77958 -9.13689 377 ft 156 kts 23°
2026-05-05 19:05 38.78954 -9.13137 1047 ft 155 kts 18°
2026-05-05 19:05 38.79963 -9.12607 1783 ft 158 kts 18°
2026-05-05 19:05 38.81011 -9.12046 2373 ft 173 kts 18°
2026-05-05 19:05 38.82154 -9.11285 2796 ft 198 kts 27°
2026-05-05 19:06 38.83397 -9.10329 3315 ft 221 kts 27°
2026-05-05 19:06 38.84789 -9.09258 3925 ft 243 kts 27°
2026-05-05 19:06 38.86268 -9.08115 4872 ft 251 kts 28°
2026-05-05 19:06 38.87779 -9.06941 5921 ft 256 kts 28°
2026-05-05 19:07 38.89319 -9.05730 6857 ft 264 kts 32°
2026-05-05 19:07 38.90741 -9.04194 7792 ft 271 kts 39°
2026-05-05 19:07 38.92202 -9.02656 8751 ft 273 kts 28°
2026-05-05 19:07 38.93988 -9.01859 9615 ft 276 kts
2026-05-05 19:08 38.95896 -9.01459 9960 ft 278 kts
2026-05-05 19:08 38.97852 -9.01088 10356 ft 295 kts
2026-05-05 19:08 38.99957 -9.00705 10844 ft 314 kts
2026-05-05 19:08 39.02149 -9.00301 11639 ft 321 kts
2026-05-05 19:09 39.04371 -8.99885 12487 ft 326 kts
2026-05-05 19:09 39.06631 -8.99452 13314 ft 331 kts
2026-05-05 19:09 39.08924 -8.99005 14108 ft 336 kts
2026-05-05 19:09 39.11253 -8.98547 14835 ft 340 kts
2026-05-05 19:10 39.13610 -8.98083 15548 ft 345 kts
2026-05-05 19:10 39.16028 -8.97607 16276 ft 349 kts
2026-05-05 19:10 39.18412 -8.97139 16994 ft 354 kts
2026-05-05 19:10 39.20863 -8.96660 17705 ft 358 kts
2026-05-05 19:11 39.23338 -8.96181 18413 ft 362 kts
2026-05-05 19:11 39.25841 -8.95696 19072 ft 366 kts
2026-05-05 19:11 39.28370 -8.95204 19704 ft 369 kts
2026-05-05 19:11 39.30928 -8.94707 20320 ft 374 kts
2026-05-05 19:12 39.33513 -8.94206 20936 ft 378 kts
2026-05-05 19:12 39.36123 -8.93699 21543 ft 382 kts
2026-05-05 19:12 39.38772 -8.93180 21968 ft 386 kts
2026-05-05 19:12 39.41423 -8.92656 22065 ft 382 kts
2026-05-05 19:13 39.44055 -8.92131 22080 ft 375 kts
2026-05-05 19:13 39.46588 -8.91629 22086 ft 373 kts
2026-05-05 19:13 39.49145 -8.91124 22081 ft 371 kts
2026-05-05 19:13 39.51732 -8.90617 22084 ft 371 kts
2026-05-05 19:14 39.54285 -8.90119 22090 ft 371 kts
2026-05-05 19:14 39.56798 -8.89626 22092 ft 371 kts
2026-05-05 19:14 39.59349 -8.89127 22095 ft 371 kts
2026-05-05 19:14 39.61898 -8.88628 22098 ft 371 kts
2026-05-05 19:15 39.64447 -8.88127 22098 ft 371 kts
2026-05-05 19:15 39.66997 -8.87623 22102 ft 371 kts
2026-05-05 19:15 39.69551 -8.87114 22124 ft 370 kts
2026-05-05 19:15 39.72100 -8.86607 22123 ft 370 kts
2026-05-05 19:16 39.74644 -8.86102 22122 ft 370 kts
2026-05-05 19:16 39.76333 -8.85766 22120 ft 370 kts
2026-05-05 19:16 39.78912 -8.85255 22119 ft 370 kts
2026-05-05 19:16 39.81421 -8.84762 22119 ft 370 kts
2026-05-05 19:17 39.83968 -8.84263 22117 ft 370 kts
2026-05-05 19:17 39.86517 -8.83764 22115 ft 370 kts
2026-05-05 19:17 39.89066 -8.83261 22115 ft 371 kts
2026-05-05 19:17 39.91613 -8.82757 22115 ft 371 kts
2026-05-05 19:18 39.94164 -8.82249 22126 ft 371 kts
2026-05-05 19:18 39.96715 -8.81738 22122 ft 370 kts
2026-05-05 19:18 39.99259 -8.81227 22119 ft 370 kts
2026-05-05 19:18 40.01807 -8.80718 22116 ft 370 kts
2026-05-05 19:19 40.04355 -8.80212 22082 ft 369 kts
2026-05-05 19:19 40.06875 -8.79707 21818 ft 363 kts
2026-05-05 19:19 40.09374 -8.79204 21541 ft 360 kts
2026-05-05 19:19 40.11834 -8.78711 21288 ft 358 kts
2026-05-05 19:20 40.14291 -8.78220 21044 ft 354 kts
2026-05-05 19:20 40.16714 -8.77734 20611 ft 350 kts
2026-05-05 19:20 40.19114 -8.77255 20159 ft 348 kts
2026-05-05 19:20 40.21460 -8.76786 19718 ft 345 kts
2026-05-05 19:21 40.23863 -8.76304 19261 ft 343 kts
2026-05-05 19:21 40.26216 -8.75832 18821 ft 341 kts
2026-05-05 19:21 40.28550 -8.75360 18382 ft 339 kts
2026-05-05 19:21 40.30876 -8.74891 17905 ft 337 kts
2026-05-05 19:22 40.33153 -8.74432 17486 ft 333 kts
2026-05-05 19:22 40.35434 -8.73974 17065 ft 330 kts
2026-05-05 19:22 40.37723 -8.73516 16646 ft 327 kts
2026-05-05 19:22 40.39967 -8.73067 16236 ft 325 kts
2026-05-05 19:23 40.42159 -8.72626 15839 ft 322 kts
2026-05-05 19:23 40.44371 -8.72179 15438 ft 320 kts
2026-05-05 19:23 40.46560 -8.71732 15042 ft 318 kts
2026-05-05 19:23 40.48748 -8.71287 14637 ft 316 kts
2026-05-05 19:24 40.50914 -8.70851 14243 ft 315 kts
2026-05-05 19:24 40.53073 -8.70416 13835 ft 313 kts
2026-05-05 19:24 40.55216 -8.69981 13401 ft 310 kts
2026-05-05 19:24 40.57341 -8.69550 12997 ft 307 kts
2026-05-05 19:25 40.59441 -8.69124 12592 ft 304 kts
2026-05-05 19:25 40.61523 -8.68706 12202 ft 301 kts
2026-05-05 19:25 40.63586 -8.68292 11801 ft 299 kts
2026-05-05 19:25 40.65636 -8.67878 11405 ft 296 kts
2026-05-05 19:26 40.67663 -8.67465 11003 ft 294 kts
2026-05-05 19:26 40.69681 -8.67054 10612 ft 292 kts
2026-05-05 19:26 40.71688 -8.66644 10261 ft 289 kts
2026-05-05 19:26 40.73640 -8.66242 10063 ft 280 kts
2026-05-05 19:27 40.75540 -8.65849 9895 ft 275 kts
2026-05-05 19:27 40.77432 -8.65460 9606 ft 274 kts
2026-05-05 19:27 40.79313 -8.65078 9242 ft 272 kts
2026-05-05 19:27 40.81168 -8.64701 8872 ft 269 kts
2026-05-05 19:28 40.83008 -8.64324 8498 ft 267 kts
2026-05-05 19:28 40.84834 -8.63951 8125 ft 264 kts
2026-05-05 19:28 40.86633 -8.63586 7759 ft 262 kts
2026-05-05 19:28 40.88431 -8.63221 7392 ft 260 kts
2026-05-05 19:29 40.90183 -8.62864 7038 ft 257 kts
2026-05-05 19:29 40.91924 -8.62507 6683 ft 253 kts
2026-05-05 19:29 40.93669 -8.62151 6317 ft 250 kts
2026-05-05 19:29 40.95372 -8.61804 5962 ft 245 kts
2026-05-05 19:30 40.97046 -8.61462 5618 ft 241 kts
2026-05-05 19:30 40.98699 -8.61309 5281 ft 235 kts 354°
2026-05-05 19:30 41.00293 -8.61677 4961 ft 230 kts 348°
2026-05-05 19:30 41.01826 -8.62087 4631 ft 226 kts 348°
2026-05-05 19:31 41.03362 -8.62498 4296 ft 223 kts 348°
2026-05-05 19:31 41.04875 -8.62904 3933 ft 221 kts 348°
2026-05-05 19:31 41.06351 -8.63298 3624 ft 213 kts 348°
2026-05-05 19:31 41.07774 -8.63672 3331 ft 202 kts 348°
2026-05-05 19:32 41.09122 -8.64024 3049 ft 194 kts 348°
2026-05-05 19:32 41.10438 -8.64367 2790 ft 191 kts 348°
2026-05-05 19:32 41.11742 -8.64706 2544 ft 190 kts 348°
2026-05-05 19:32 41.13006 -8.65036 2286 ft 179 kts 347°
2026-05-05 19:33 41.14160 -8.65335 2082 ft 163 kts 347°
2026-05-05 19:33 41.15230 -8.65613 1855 ft 148 kts 347°
2026-05-05 19:33 41.16193 -8.65863 1679 ft 132 kts 346°
2026-05-05 19:33 41.17061 -8.66087 1497 ft 124 kts 347°
2026-05-05 19:34 41.17887 -8.66304 1340 ft 118 kts 346°
2026-05-05 19:34 41.18694 -8.66515 1182 ft 119 kts 347°
2026-05-05 19:34 41.19512 -8.66730 1029 ft 119 kts 347°
2026-05-05 19:35 41.21126 -8.67174 700 ft 119 kts 349°
2026-05-05 19:35 41.21937 -8.67381 558 ft 119 kts 347°
2026-05-05 19:35 41.22745 -8.67593 411 ft 118 kts 347°
2026-05-05 19:35 41.23545 -8.67798 247 ft 116 kts 347°
2026-05-05 19:36 41.24253 -8.67980 225 ft 104 kts 348°
2026-05-05 19:36 41.25050 -8.68197 630 ft 133 kts 346°
2026-05-05 19:36 41.25991 -8.68541 1396 ft 144 kts 333°
2026-05-05 19:36 41.26656 -8.69610 1916 ft 169 kts 290°
2026-05-05 19:37 41.26744 -8.71291 2413 ft 192 kts 271°
2026-05-05 19:37 41.26556 -8.73100 2909 ft 206 kts 257°
2026-05-05 19:37 41.25956 -8.74817 2979 ft 212 kts 238°
2026-05-05 19:37 41.24749 -8.75981 3016 ft 222 kts 200°
2026-05-05 19:38 41.23210 -8.76159 3012 ft 224 kts 178°
2026-05-05 19:38 41.21664 -8.75973 3009 ft 223 kts 173°
2026-05-05 19:38 41.20138 -8.75639 3010 ft 224 kts 169°
2026-05-05 19:38 41.18591 -8.75251 3004 ft 225 kts 169°
2026-05-05 19:39 41.17052 -8.74861 3013 ft 226 kts 169°
2026-05-05 19:39 41.15513 -8.74480 3011 ft 224 kts 171°
2026-05-05 19:39 41.13978 -8.74128 3011 ft 223 kts 170°
2026-05-05 19:39 41.12447 -8.73765 2999 ft 224 kts 170°
2026-05-05 19:40 41.10972 -8.72990 3011 ft 218 kts 141°
2026-05-05 19:40 41.10061 -8.71615 3028 ft 196 kts 115°
2026-05-05 19:40 41.09703 -8.69965 3008 ft 174 kts 89°
2026-05-05 19:40 41.09685 -8.68468 2999 ft 156 kts 76°
2026-05-05 19:41 41.10005 -8.67143 2996 ft 144 kts 55°
2026-05-05 19:41 41.10595 -8.66112 3005 ft 139 kts 38°
2026-05-05 19:41 41.11383 -8.65398 2858 ft 138 kts 20°
2026-05-05 19:41 41.12297 -8.65049 2643 ft 137 kts
2026-05-05 19:42 41.13224 -8.65092 2435 ft 135 kts 348°
2026-05-05 19:42 41.14129 -8.65338 2250 ft 128 kts 346°
2026-05-05 19:42 41.14975 -8.65555 2059 ft 122 kts 347°
2026-05-05 19:42 41.15800 -8.65769 1884 ft 120 kts 346°
2026-05-05 19:43 41.16614 -8.65980 1723 ft 119 kts 346°
2026-05-05 19:43 41.17425 -8.66191 1538 ft 118 kts 346°
2026-05-05 19:43 41.18226 -8.66400 1366 ft 118 kts 346°
2026-05-05 19:43 41.19035 -8.66615 1180 ft 120 kts 346°
2026-05-05 19:44 41.19842 -8.66851 977 ft 118 kts 350°
2026-05-05 19:44 41.20650 -8.67031 816 ft 117 kts 349°
2026-05-05 19:44 41.21457 -8.67251 624 ft 118 kts 348°
2026-05-05 19:44 41.22263 -8.67463 482 ft 118 kts 347°
2026-05-05 19:45 41.23061 -8.67671 322 ft 116 kts 348°
2026-05-05 19:45 41.23830 -8.67872 228 ft 102 kts 347°
2026-05-05 19:45 41.24405 -8.68022 213 ft 60 kts 349°
2026-05-05 19:45 41.24728 -8.68107 201 ft 40 kts 348°
2026-05-05 19:46 41.25016 -8.68169 189 ft 48 kts 359°
2026-05-05 19:46 41.25293 -8.68070 180 ft 31 kts 65°